Regional Weather Roundup
Issued by NWS

Home | Current Version | Previous Version | Graphics & Text | Print | Product List | Glossary On
Versions: 1 2 3 4 5 6 7 8 9 10 11 12 13 14 15 16 17 18 19 20 21 22 23 24 25 26 27 28 29 30 31 32 33 34 35 36 37 38 39 40 41 42 43 44 45 46 47 48 49 50
000
ASUS43 KLSX 202159
RWRMO

WEATHER SUMMARY FOR MISSOURI
NATIONAL WEATHER SERVICE SPRINGFIELD MO
400 PM CST SAT DEC 20 2014

NOTE: "FAIR" INDICATES FEW OR NO CLOUDS BELOW 12,000 FEET WITH NO
       SIGNIFICANT WEATHER AND/OR OBSTRUCTIONS TO VISIBILITY.
       CURRENT SKY AND/OR WEATHER CONDITIONS ARE NOT AVAILABLE FOR
       CHILLICOTHE AND FARMINGTON.

MOZ001>031-035>038-043-044-053-054-202300-
...NORTHERN AND WESTERN MISSOURI...

CITY           SKY/WX    TMP DP  RH WIND       PRES   REMARKS
KANSAS CTY INT CLOUDY    45  39  79 SW10      30.11R
KANSAS C DTWN  CLOUDY    47  38  71 S9        30.12S
LEE`S SUMMIT   CLOUDY    42  36  79 S9        30.13R
ST JOSEPH      CLOUDY    43  37  79 E3        30.11S
CHILLICOTHE      N/A     38  35  89 S7        30.16R
KIRKSVILLE     CLOUDY    38  35  89 S7        30.16R

$$
MOZ066>068-077>081-088>096-101>105-202300-
...SOUTHWEST MISSOURI...

CITY           SKY/WX    TMP DP  RH WIND       PRES   REMARKS
SPRINGFIELD    CLOUDY    42  36  79 S7        30.16F
JOPLIN         MOCLDY    44  34  67 S10       30.17F

$$
MOZ032>034-039>042-045>050-055>058-069>072-202300-
...CENTRAL MISSOURI...

CITY           SKY/WX    TMP DP  RH WIND       PRES   REMARKS
COLUMBIA       CLOUDY    41  36  82 S6        30.18S
JEFFERSON CITY CLOUDY    43  35  73 SW5       30.20S
ROLLA          CLOUDY    41  35  79 S6        30.17S
SEDALIA        CLOUDY    41  35  79 S7        30.17S
WARRENSBURG    CLOUDY    37  34  87 S9        30.17R
OSAGE BEACH    CLOUDY    43  34  70 SW7       30.18S

$$
MOZ051-052-059>065-202300-
...EAST CENTRAL MISSOURI...

CITY           SKY/WX    TMP DP  RH WIND       PRES   REMARKS
ST LOUIS INTL  CLOUDY    43  33  68 SE9       30.23S
SPIRIT OF STL  CLOUDY    42  33  70 E6        30.22R
ST CHARLES     CLOUDY    41  34  76 SE6       30.23R

$$
MOZ072>076-082>087-097>100-106>115-202300-
...SOUTH CENTRAL AND SOUTHEAST MISSOURI...

CITY           SKY/WX    TMP DP  RH WIND       PRES   REMARKS
CAPE GIRARDEAU CLOUDY    43  32  65 SE3       30.25R
FARMINGTON     CLOUDY    39  34  81 SE5       30.23S
POPLAR BLUFF   CLOUDY    43  32  65 CALM      30.24R
WEST PLAINS    CLOUDY    42  35  76 S5        30.20S

$$



USA.gov is the U.S. government's official web portal to all federal, state and local government web resources and services.